This is the latest recevied weather packets stored in our database for station/object KD9NSC. If no packets are shown the sender has not sent any weather packets the latest 10 day(s).
| Time | Temp. | Humidity | Pressure | Rain* | Wind** | Luminosity | Snow |
|---|---|---|---|---|---|---|---|
| 1777701218 | 0.56° C | 88% | 1021.5 hPa | 0 mm | - | 0 W/m² | - |
| 1777700918 | 0.56° C | 87% | 1021.6 hPa | 0 mm | - | 0 W/m² | - |
| 1777700614 | 0.56° C | 87% | 1021.4 hPa | 0 mm | - | 0 W/m² | - |
| 1777700312 | 0.56° C | 87% | 1021.6 hPa | 0 mm | - | 0 W/m² | - |
| 1777700009 | 0.56° C | 87% | 1021.5 hPa | 0 mm | - | 0 W/m² | - |
| 1777699707 | 0.56° C | 86% | 1021.8 hPa | 0 mm | - | 0 W/m² | - |
| 1777699405 | 0.56° C | 86% | 1021.6 hPa | 0 mm | - | 0 W/m² | - |
| 1777699102 | 1.11° C | 86% | 1021.6 hPa | 0 mm | - | 0 W/m² | - |
| 1777698801 | 1.11° C | 86% | 1021.5 hPa | 0 mm | - | 0 W/m² | - |
| 1777698496 | 1.11° C | 86% | 1021.7 hPa | 0 mm | - | 0 W/m² | - |
| 1777698193 | 1.11° C | 85% | 1021.5 hPa | 0 mm | - | 0 W/m² | - |
| 1777697890 | 1.11° C | 85% | 1021.4 hPa | 0 mm | - | 0 W/m² | - |
| 1777697586 | 1.11° C | 84% | 1021.5 hPa | 0 mm | - | 0 W/m² | - |
| 1777697284 | 1.67° C | 84% | 1021.5 hPa | 0 mm | - | 0 W/m² | - |
| 1777696980 | 1.67° C | 85% | 1021.4 hPa | 0 mm | - | 0 W/m² | - |
| 1777696677 | 1.67° C | 83% | 1021.6 hPa | 0 mm | - | 0 W/m² | - |
| 1777696375 | 2.22° C | 83% | 1021.6 hPa | 0 mm | - | 0 W/m² | - |
| 1777696074 | 2.22° C | 83% | 1021.5 hPa | 0 mm | - | 0 W/m² | - |
| 1777695771 | 2.78° C | 82% | 1021.6 hPa | 0 mm | - | 0 W/m² | - |
| 1777695469 | 2.78° C | 82% | 1021.5 hPa | 0 mm | - | 0 W/m² | - |
| 1777695166 | 2.78° C | 81% | 1021.6 hPa | 0 mm | - | 0 W/m² | - |
| 1777694863 | 3.33° C | 80% | 1021.4 hPa | 0 mm | - | 0 W/m² | - |
| 1777694560 | 3.33° C | 77% | 1021.6 hPa | 0 mm | - | 0 W/m² | - |
| 1777694256 | 3.33° C | 73% | 1021.5 hPa | 0 mm | - | 0 W/m² | - |
| 1777693953 | 3.33° C | 70% | 1021.4 hPa | 0 mm | - | 0 W/m² | - |
* Rain latest hour (hover to see other rain measurements)
** Current wind speed in m/s (hover to see current wind gust speed)